This is the latest recevied weather packets stored in our database for station/object F8BPU-10. If no packets are shown the sender has not sent any weather packets the latest 1 day(s).
| Time | Temp. | Humidity | Pressure | Rain* | Wind** | Luminosity | Snow |
|---|---|---|---|---|---|---|---|
| 1777747796 | 27.78° C | 33% | 1013.8 hPa | - | - | - | - |
| 1777746896 | 27.78° C | 33% | 1013.9 hPa | - | - | - | - |
| 1777745996 | 27.78° C | 34% | 1014 hPa | - | - | - | - |
| 1777745096 | 27.22° C | 35% | 1014 hPa | - | - | - | - |
| 1777744196 | 26.67° C | 36% | 1014.1 hPa | - | - | - | - |
| 1777743296 | 25.56° C | 37% | 1013.8 hPa | - | - | - | - |
| 1777742395 | 26.11° C | 37% | 1013.9 hPa | - | - | - | - |
| 1777741495 | 26.11° C | 37% | 1014 hPa | - | - | - | - |
| 1777740595 | 26.67° C | 36% | 1014.2 hPa | - | - | - | - |
| 1777739695 | 27.22° C | 34% | 1014.3 hPa | - | - | - | - |
| 1777738795 | 26.67° C | 36% | 1014.3 hPa | - | - | - | - |
| 1777737895 | 26.67° C | 35% | 1013.8 hPa | - | - | - | - |
| 1777736995 | 26.67° C | 34% | 1014.2 hPa | - | - | - | - |
| 1777736095 | 27.22° C | 33% | 1014.6 hPa | - | - | - | - |
| 1777735195 | 27.22° C | 33% | 1014.8 hPa | - | - | - | - |
| 1777734295 | 27.78° C | 32% | 1015.1 hPa | - | - | - | - |
| 1777733395 | 28.89° C | 30% | 1015.3 hPa | - | - | - | - |
| 1777732494 | 28.89° C | 30% | 1015.4 hPa | - | - | - | - |
| 1777731594 | 28.89° C | 30% | 1015.8 hPa | - | - | - | - |
| 1777730694 | 28.33° C | 30% | 1016 hPa | - | - | - | - |
| 1777729794 | 28.33° C | 30% | 1016.3 hPa | - | - | - | - |
| 1777728894 | 28.89° C | 29% | 1016.6 hPa | - | - | - | - |
| 1777727994 | 28.89° C | 29% | 1017 hPa | - | - | - | - |
| 1777727094 | 28.89° C | 28% | 1017 hPa | - | - | - | - |
| 1777726194 | 28.89° C | 28% | 1017.2 hPa | - | - | - | - |
* Rain since midnight (hover to see other rain measurements)
** Current wind speed in m/s (hover to see current wind gust speed)